Wind_Speed
4 3 2 4 5 6 9 9 10 13 16 19 21 23 25 28 32 35 38 39 41 41 41 41 42 44 45 39 33 33 34 35 37 34 32 35 27 25 26 24 24 25 26
6 5 4 4 5 4 1 1 2 6 9 9 9 11 14 16 19 22 25 29 32 34 35 34 36 38 38 39 39 38 34 34 35 38 36 32 32 31 30 32 31 30 30
8 7 7 7 6 3 3 2 1 2 6 7 11 11 8 6 10 14 18 20 21 24 28 30 28 34 37 40 40 37 38 37 36 37 37 38 38 36 37 35 36 36 34
9 8 10 8 8 9 9 6 6 1 2 4 5 6 8 7 5 3 13 17 18 20 22 24 25 26 28 28 29 36 40 41 39 37 37 37 39 42 41 41 41 40 41
10 9 11 11 13 10 11 9 9 7 6 2 5 4 4 7 11 10 5 9 17 19 18 19 21 23 27 29 30 29 30 32 41 38 39 41 41 42 44 43 44 46 46
14 13 13 14 14 15 11 12 13 12 12 9 9 10 11 8 11 13 11 10 8 14 18 18 17 15 15 17 20 23 25 29 28 35 39 36 39 42 44 47 47 46 47
18 17 16 14 15 15 14 15 15 14 14 14 14 13 14 14 20 23 22 19 18 15 11 11 11 12 12 12 13 13 14 17 19 21 22 25 27 29 32 35 37 40 39
12 14 15 15 15 16 15 13 15 17 17 17 17 15 14 19 20 23 25 23 24 24 22 20 18 15 14 12 11 12 11 9 7 6 6 5 7 10 11 11 11 10 12
6 8 10 12 14 16 15 15 18 18 17 19 19 19 20 18 18 21 23 23 22 23 23 21 20 17 17 17 16 14 12 10 7 4 3 3 4 2 2 4 5 6 7
9 8 7 9 10 13 16 18 18 16 16 18 18 18 17 16 19 20 20 20 20 19 18 17 16 15 15 16 13 10 8 7 7 9 8 7 6 5 3 4 4 7 9
4 9 11 10 9 6 12 15 16 15 15 17 15 16 15 13 15 15 14 15 14 16 14 15 13 11 10 9 10 7 7 6 6 4 4 3 4 3 4 5 7 9 11
3 7 11 11 11 6 10 10 13 14 18 16 15 15 15 14 12 12 13 14 13 12 11 12 10 9 9 10 9 8 6 5 5 6 6 6 6 8 9 11 12 13 14
1 3 8 10 10 14 10 14 12 14 13 16 14 15 14 11 10 11 9 12 12 10 13 10 6 6 6 5 4 4 5 6 8 10 10 11 11 13 14 15 17 18 20
4 4 3 1 4 8 12 14 15 16 13 13 14 13 12 8 10 10 10 11 8 7 5 5 2 2 4 6 5 7 10 9 11 12 14 16 17 19 20 22 23 22 24
2 3 3 4 4 2 7 11 13 12 12 11 12 11 10 9 12 11 12 8 6 5 5 6 5 5 6 8 10 10 12 14 16 17 19 20 22 22 25 26 28 29 31
3 4 4 1 1 1 5 6 8 10 11 10 13 12 13 12 13 13 9 7 6 5 6 7 8 11 12 13 15 17 18 19 22 24 26 28 29 31 32 34 35 36 37
4 4 4 3 3 5 3 5 6 9 11 12 14 13 15 15 15 12 10 10 9 11 12 13 14 17 18 20 22 25 27 29 30 33 33 34 36 36 37 38 40 41 42
7 5 6 7 7 7 8 9 11 12 14 13 14 15 18 17 15 14 12 13 15 15 16 17 20 22 24 27 30 32 34 35 35 36 38 39 40 41 42 44 44 45 45
10 10 9 9 8 7 8 10 10 11 13 14 15 15 18 17 18 19 18 19 21 20 22 25 28 30 32 35 37 39 41 43 44 45 46 47 47 48 49 49 50 50 50
10 12 14 13 13 12 12 13 13 13 15 16 19 20 20 21 23 24 24 23 25 28 30 33 36 37 40 42 44 46 48 49 50 52 55 57 57 55 54 55 56 58 60
11 10 13 18 18 16 17 19 19 19 21 23 25 26 27 28 27 28 29 31 33 35 38 40 42 45 47 49 51 53 53 55 56 58 60 61 61 60 59 60 61 62 65
13 13 14 15 17 20 22 24 25 25 27 29 30 32 33 34 33 34 35 37 39 42 44 47 49 51 54 55 57 57 59 60 62 64 64 63 63 64 65 66 68 68 69
14 16 16 18 20 22 22 24 28 31 32 34 36 37 37 37 38 40 42 45 47 49 52 54 56 57 59 60 61 62 64 65 65 64 64 64 66 67 68 69 70 71 73
15 15 17 19 21 22 23 26 29 31 34 37 38 40 42 44 46 48 49 52 54 55 56 58 59 60 62 62 62 62 62 62 62 64 66 66 66 67 68 69 71 73 76
22 22 22 22 23 25 27 29 30 31 33 36 39 43 45 46 47 48 49 50 51 52 53 54 55 54 55 55 57 59 62 62 65 66 69 72 71 73 74 76 76 76 79
26 27 27 30 31 30 30 30 31 33 36 39 42 45 45 46 47 48 50 53 54 54 55 56 59 59 61 63 65 66 66 73 72 73 72 77 78 84 85 88 88 87 86
Wind_Direction
182 193 200 233 245 267 268 263 258 256 262 265 262 259 257 256 254 252 250 248 246 244 243 242 241 240 236 233 236 238 240 241 241 238 238 242 239 235 239 245 250 253 255
102 107 136 105 104 119 78 337 320 302 295 302 304 294 276 265 259 255 250 246 243 241 242 240 237 238 236 239 237 236 239 238 237 240 238 242 248 241 239 240 240 246 250
101 104 112 117 125 136 133 128 99 309 330 344 342 338 335 296 259 246 243 242 238 235 236 234 236 233 238 237 236 235 238 241 240 242 244 246 248 247 248 249 248 252 256
102 108 129 142 152 161 157 151 153 260 88 358 10 13 6 16 15 254 231 229 230 229 226 226 231 233 234 235 239 237 236 240 244 247 244 243 245 247 250 249 251 253 256
119 130 156 153 155 165 158 159 141 154 146 137 111 84 49 31 43 62 92 206 220 224 225 224 227 233 238 240 239 243 246 249 244 247 246 245 247 250 252 255 257 260 262
132 140 144 147 151 148 137 127 132 129 141 139 121 112 105 74 69 66 76 100 154 205 211 217 222 228 236 239 242 244 246 247 252 252 253 256 258 260 261 260 260 263 267
132 139 142 146 149 148 128 133 138 147 128 131 134 124 104 101 105 91 85 85 89 96 125 164 192 207 217 219 223 226 231 237 242 247 249 253 258 262 264 267 269 271 273
131 139 134 135 141 152 144 147 147 144 133 133 131 120 116 113 114 107 104 96 97 101 103 109 116 125 130 137 139 135 135 142 159 178 202 227 251 260 267 276 281 275 277
140 129 135 139 136 147 138 142 149 144 140 133 126 122 123 112 111 113 112 112 108 103 100 97 100 102 104 108 112 121 131 137 147 167 163 156 108 145 226 232 247 259 264
146 161 159 148 156 155 150 144 144 149 135 136 134 128 126 123 115 112 110 107 108 106 107 109 109 117 122 126 131 139 138 143 143 132 128 134 145 162 195 243 260 272 274
126 170 179 175 179 178 162 160 154 152 146 144 145 139 129 116 121 118 113 112 103 106 105 102 99 98 109 115 131 133 127 134 145 155 174 190 204 223 244 251 266 265 265
168 199 198 200 194 182 193 175 172 166 159 157 148 140 131 131 133 124 125 127 119 117 109 120 106 126 135 141 155 153 153 167 187 193 216 233 231 240 249 252 260 277 284
61 223 226 228 219 206 207 194 192 172 171 156 157 148 137 138 139 145 149 140 135 131 139 144 137 131 147 152 186 218 227 249 248 262 260 267 270 277 277 280 294 292 289
24 16 331 277 236 234 212 189 181 185 176 164 166 166 168 166 170 173 172 154 149 166 173 182 184 234 214 222 254 290 294 300 305 302 299 295 295 294 293 294 293 291 291
17 17 30 83 73 133 155 183 184 180 181 179 178 185 203 203 185 183 178 180 184 201 214 233 247 248 273 288 302 307 313 309 310 306 304 300 294 293 293 291 288 290 291
279 299 320 306 235 97 156 182 198 197 193 198 194 207 205 198 199 193 195 221 228 251 271 283 293 299 302 308 315 314 311 307 305 301 298 295 293 290 289 287 287 288 288
300 276 285 278 238 224 223 197 211 208 200 207 216 223 215 207 206 217 229 242 252 267 280 287 296 302 306 310 309 310 307 309 305 305 303 297 295 291 291 291 292 292 292
250 259 262 276 267 256 233 226 219 222 221 226 228 227 228 220 227 239 254 261 268 279 285 288 295 299 300 301 304 305 304 305 304 303 301 299 296 294 291 288 286 287 288
261 259 257 262 270 264 246 239 242 239 231 234 231 241 247 246 249 254 266 273 273 277 283 291 297 300 301 302 303 303 301 300 300 300 299 298 296 294 293 292 291 289 288
262 263 258 261 268 266 248 248 248 247 252 258 255 263 271 271 272 275 278 273 275 278 286 290 295 296 298 301 301 300 298 297 297 298 299 299 298 296 292 289 288 290 290
261 265 264 268 271 270 266 257 252 250 255 263 268 270 272 273 273 271 270 270 276 282 287 290 291 293 295 296 297 296 295 294 294 294 294 294 295 295 294 293 292 292 293
285 276 271 273 276 271 268 268 267 267 266 268 270 268 266 264 265 265 268 271 276 278 280 283 285 287 289 290 292 293 293 293 293 294 294 294 295 296 295 294 294 294 293
297 295 290 281 278 279 278 277 276 273 272 274 277 272 268 265 266 269 271 275 277 281 283 285 287 288 290 291 292 292 293 294 295 295 295 295 295 295 295 294 294 293 293
279 287 294 298 298 295 291 286 283 282 280 280 281 279 274 272 277 278 279 282 285 286 287 288 290 291 292 293 294 295 296 298 299 299 298 298 297 297 296 296 296 295 295
277 283 287 288 289 290 290 289 290 291 293 291 288 286 286 286 286 287 288 291 291 291 292 293 296 298 300 300 298 297 298 301 300 300 300 299 299 299 299 298 296 296 296
276 276 279 291 294 290 289 291 294 296 296 296 294 294 293 293 293 294 295 296 296 297 300 300 301 300 302 302 301 303 302 303 301 302 301 301 299 301 300 301 299 296 295
Height
10770 10771 10771 10772 10772 10772 10772 10773 10773 10773 10773 10775 10777 10776 10777 10777 10777 10778 10779 10781 10783 10784 10786 10789 10792 10795 10798 10801 10804 10806 10808 10811 10813 10815 10816 10818 10819 10821 10822 10823 10824 10825 10825
10770 10770 10771 10771 10772 10771 10772 10771 10772 10772 10772 10772 10772 10772 10771 10771 10771 10772 10773 10775 10777 10778 10780 10783 10786 10789 10793 10796 10799 10802 10804 10806 10808 10809 10811 10813 10815 10816 10817 10817 10818 10819 10820
10770 10771 10771 10771 10772 10772 10772 10772 10772 10772 10771 10770 10769 10769 10767 10767 10766 10766 10767 10768 10770 10773 10776 10779 10781 10784 10787 10790 10793 10796 10798 10800 10801 10803 10806 10808 10809 10811 10811 10812 10812 10813 10814
10771 10772 10772 10772 10773 10773 10773 10773 10774 10773 10772 10771 10770 10769 10766 10764 10763 10762 10763 10764 10766 10768 10770 10774 10777 10779 10782 10785 10787 10789 10791 10793 10795 10798 10800 10802 10803 10804 10805 10806 10806 10807 10809
10773 10773 10774 10775 10775 10775 10775 10775 10775 10774 10773 10773 10772 10770 10768 10765 10764 10762 10761 10762 10764 10766 10768 10771 10773 10776 10778 10781 10783 10786 10788 10789 10791 10793 10794 10796 10798 10798 10799 10800 10801 10802 10802
10775 10775 10776 10776 10776 10777 10777 10777 10776 10775 10774 10773 10774 10772 10770 10768 10766 10765 10763 10762 10762 10764 10766 10769 10772 10774 10776 10778 10780 10782 10784 10785 10787 10788 10790 10791 10792 10792 10792 10794 10795 10795 10795
10777 10778 10777 10777 10778 10778 10779 10778 10776 10776 10775 10774 10774 10775 10774 10772 10770 10768 10768 10766 10765 10765 10766 10768 10771 10773 10775 10776 10777 10779 10780 10781 10782 10784 10784 10785 10786 10786 10787 10788 10788 10789 10789
10779 10779 10779 10779 10779 10779 10779 10778 10777 10777 10776 10776 10776 10776 10776 10774 10774 10772 10771 10772 10771 10770 10771 10771 10773 10773 10775 10776 10777 10778 10779 10780 10781 10781 10782 10783 10784 10784 10784 10785 10785 10785 10784
10781 10781 10780 10780 10780 10780 10779 10779 10779 10779 10778 10777 10778 10777 10777 10778 10777 10776 10774 10774 10774 10775 10775 10775 10776 10777 10778 10779 10780 10781 10781 10782 10782 10782 10783 10784 10784 10784 10784 10784 10784 10783 10783
10780 10780 10781 10780 10780 10780 10780 10779 10780 10780 10780 10781 10780 10780 10780 10780 10780 10780 10780 10780 10779 10779 10780 10780 10781 10781 10782 10782 10783 10783 10783 10784 10784 10784 10784 10784 10784 10784 10783 10783 10783 10782 10781
10780 10779 10779 10778 10779 10780 10779 10780 10780 10780 10781 10781 10781 10782 10782 10783 10782 10782 10783 10783 10783 10782 10782 10783 10783 10784 10784 10784 10785 10785 10785 10785 10786 10785 10785 10784 10784 10783 10782 10781 10781 10780 10779
10779 10778 10778 10777 10778 10779 10781 10781 10780 10780 10781 10782 10783 10783 10784 10785 10785 10785 10785 10785 10785 10786 10786 10786 10787 10786 10786 10786 10786 10786 10786 10786 10786 10785 10785 10784 10783 10782 10781 10780 10778 10777 10776
10778 10778 10777 10777 10778 10779 10779 10780 10781 10782 10782 10782 10784 10785 10785 10786 10787 10786 10786 10786 10787 10787 10787 10787 10787 10787 10787 10787 10787 10787 10786 10786 10785 10784 10783 10783 10782 10781 10779 10778 10776 10775 10773
10780 10779 10778 10778 10778 10778 10779 10780 10781 10783 10784 10784 10785 10786 10786 10786 10786 10787 10787 10787 10787 10788 10788 10787 10788 10787 10787 10787 10787 10786 10786 10785 10784 10782 10781 10780 10779 10777 10776 10774 10772 10770 10768
10779 10779 10779 10779 10779 10779 10780 10781 10783 10783 10784 10785 10786 10786 10786 10786 10786 10787 10787 10788 10788 10788 10787 10787 10787 10787 10786 10786 10785 10784 10783 10782 10781 10780 10778 10776 10775 10773 10771 10769 10767 10765 10763
10779 10779 10779 10779 10780 10781 10781 10782 10783 10784 10785 10785 10786 10786 10786 10786 10786 10787 10787 10787 10787 10787 10787 10786 10786 10785 10784 10782 10781 10780 10779 10778 10777 10775 10773 10771 10769 10767 10765 10763 10760 10758 10755
10777 10777 10778 10778 10778 10779 10780 10781 10782 10783 10784 10784 10785 10784 10785 10785 10785 10785 10785 10786 10785 10785 10784 10783 10782 10781 10780 10779 10778 10777 10775 10773 10771 10769 10767 10765 10762 10760 10757 10754 10752 10749 10746
10774 10775 10775 10776 10777 10777 10777 10778 10779 10780 10781 10782 10783 10783 10783 10783 10784 10783 10783 10783 10782 10782 10781 10780 10779 10778 10776 10775 10773 10771 10769 10767 10764 10762 10760 10757 10754 10752 10749 10745 10742 10739 10735
10772 10773 10773 10774 10774 10775 10776 10776 10778 10779 10780 10780 10780 10780 10781 10781 10781 10780 10780 10780 10779 10778 10777 10775 10773 10772 10770 10768 10766 10764 10761 10759 10757 10754 10751 10749 10746 10743 10740 10736 10733 10729 10725
10769 10770 10771 10771 10772 10773 10774 10775 10776 10776 10777 10777 10777 10777 10777 10778 10777 10777 10776 10775 10773 10772 10770 10768 10766 10764 10762 10760 10758 10755 10752 10750 10747 10744 10741 10737 10734 10731 10728 10725 10721 10717 10713
10766 10767 10767 10768 10768 10769 10770 10771 10772 10772 10772 10772 10772 10772 10771 10771 10771 10770 10769 10768 10766 10764 10762 10760 10758 10756 10753 10750 10748 10745 10742 10739 10736 10732 10728 10725 10721 10718 10715 10711 10707 10703 10698
10762 10763 10763 10764 10764 10765 10766 10766 10767 10767 10767 10767 10767 10766 10766 10765 10763 10762 10761 10759 10758 10756 10754 10751 10749 10746 10743 10740 10737 10734 10729 10726 10722 10719 10715 10711 10708 10704 10701 10696 10692 10687 10683
10758 10759 10759 10760 10760 10760 10761 10761 10762 10762 10761 10760 10760 10759 10758 10757 10757 10755 10753 10750 10748 10746 10744 10741 10738 10734 10731 10727 10724 10720 10716 10711 10708 10703 10700 10697 10693 10689 10685 10680 10676 10671 10666
10754 10754 10754 10754 10754 10754 10755 10755 10756 10755 10755 10754 10753 10751 10750 10750 10748 10745 10743 10741 10738 10735 10733 10729 10725 10721 10717 10714 10709 10706 10703 10698 10693 10688 10681 10679 10676 10672 10667 10663 10658 10653 10648
10749 10749 10749 10749 10749 10748 10748 10748 10748 10747 10746 10745 10743 10742 10740 10739 10737 10734 10732 10729 10727 10723 10721 10717 10713 10709 10704 10700 10696 10692 10688 10684 10679 10677 10668 10661 10657 10653 10648 10643 10637 10632 10627
10742 10743 10743 10743 10742 10742 10741 10741 10740 10739 10738 10736 10734 10732 10730 10728 10726 10722 10720 10717 10715 10711 10708 10704 10700 10696 10691 10686 10681 10677 10671 10666 10660 10656 10655 10644 10642 10630 10626 10619 10613 10609 10603